Track STARLINK-1601 now! 10-day predictions STARLINK-1601 is classified as:
1 46120U 20057D 21021.42859669 .00000729 00000-0 67866-4 0 9997 2 46120 53.0566 85.9935 0001571 65.0266 295.0886 15.06396914 25007